This is the latest recevied weather packets stored in our database for station/object KW4UJ. If no packets are shown the sender has not sent any weather packets the latest 10 day(s).
| Time | Temp. | Humidity | Pressure | Rain* | Wind** | Luminosity | Snow |
|---|---|---|---|---|---|---|---|
| 1788295642 | 34.44° C | 55% | 1014.5 hPa | 0 mm | - | 305 W/m² | - |
| 1788295315 | 34.44° C | 53% | 1014.5 hPa | 0 mm | - | 221 W/m² | - |
| 1788295014 | 35° C | 53% | 1014.5 hPa | 0 mm | - | 188 W/m² | - |
| 1788294710 | 35° C | 53% | 1014.7 hPa | 0 mm | - | 326 W/m² | - |
| 1788294408 | 35° C | 52% | 1014.6 hPa | 0 mm | - | 341 W/m² | - |
| 1788294105 | 35° C | 51% | 1014.5 hPa | 0 mm | - | 315 W/m² | - |
| 1788293800 | 35° C | 53% | 1014.8 hPa | 0 mm | - | 398 W/m² | - |
| 1788293500 | 35° C | 53% | 1015 hPa | 0 mm | - | 407 W/m² | - |
| 1788293200 | 34.44° C | 53% | 1014.8 hPa | 0 mm | - | 419 W/m² | - |
| 1788292894 | 34.44° C | 53% | 1014.9 hPa | 0 mm | - | 439 W/m² | - |
| 1788292592 | 33.33° C | 56% | 1014.8 hPa | 0 mm | - | 362 W/m² | - |
| 1788292293 | 33.33° C | 59% | 1014.9 hPa | 0 mm | - | 250 W/m² | - |
| 1788291988 | 33.33° C | 59% | 1015.2 hPa | 0 mm | - | 257 W/m² | - |
| 1788291683 | 33.33° C | 59% | 1015.3 hPa | 0 mm | - | 184 W/m² | - |
| 1788291379 | 33.33° C | 60% | 1015.1 hPa | 0 mm | - | 202 W/m² | - |
| 1788291078 | 33.89° C | 58% | 1015 hPa | 0 mm | - | 199 W/m² | - |
| 1788290774 | 33.89° C | 57% | 1015.3 hPa | 0 mm | - | 244 W/m² | - |
| 1788290486 | 33.89° C | 57% | 1015.3 hPa | 0 mm | - | 202 W/m² | - |
| 1788290165 | 33.33° C | 58% | 1015.6 hPa | 0 mm | - | 235 W/m² | - |
| 1788289861 | 33.33° C | 59% | 1015.7 hPa | 0 mm | - | 238 W/m² | - |
| 1788289556 | 33.89° C | 58% | 1015.8 hPa | 0 mm | - | 137 W/m² | - |
| 1788289255 | 34.44° C | 56% | 1015.8 hPa | 0 mm | - | 115 W/m² | - |
| 1788288954 | 34.44° C | 54% | 1016 hPa | 0 mm | - | 210 W/m² | - |
| 1788288653 | 33.89° C | 56% | 1015.8 hPa | 0 mm | - | 652 W/m² | - |
| 1788288348 | 33.33° C | 57% | 1015.8 hPa | 0 mm | - | 220 W/m² | - |
* Rain latest hour (hover to see other rain measurements)
** Current wind speed in m/s (hover to see current wind gust speed)